Powrót do katalogu

KUIPER-00146

AktywnyŁącznośćLEO
NORAD 65967·PAYLOAD·🇺🇸 United States

Wystrzelony Oct 14, 2025 z Cape Canaveral Space Force Station

Loading…

Następne Przeloty (najbliższe 24 godziny)

TLE

ŚwieżeSource: CelesTrak SupGP

Epoka: Sep 14, 2026, 20:10 UTC

1 65967C 25228W   26257.84046296 -.00019796  00000+0 -25913-2 0  2575
2 65967  51.9018 226.8206 0000817  57.3042 170.3705 14.79951273    14

Śledź KUIPER-00146 w czasie rzeczywistym z AllMySat

Download on the App Store